User: anonymous   Login
Location: Unspecified
(0.0000°N, 0.0000°E)
Time: 08:55:22
(UTC+00:00)
Language:

STARLINK-33737 - Orbit

View from above orbital plane
View from above orbital plane
View from above satellite
View from above satellite

Ground track
Ground track

The orbit is defined by the following mean orbital elements,

1 63456U          26144.72761898 +.00000000 +00000-0 +59533-3 0 00000
2 63456  53.1597 146.6281 0001302  80.6312 279.4841 15.42177499    04
Epoch (UTC): 24 May 2026 17:27:46
Eccentricity: 0.0001302
inclination: 53.1597°
perigee height: 439 km
apogee height: 441 km
right ascension of ascending node: 146.6281°
argument of perigee: 80.6312°
revolutions per day: 15.42177499
mean anomaly at epoch: 279.4841°

The dashed part of the orbit path shows where the satellite is in the earth's shadow,  

DLR